Oceanside, CA

5:18 AM PDT on September 19, 2017 (GMT -0700)
Oceanside Municipal

Weather History for KOKB - July, 2014

Change the Weather History Date:

Tuesday, July 8, 2014

  Actual Average Record
Temperature  
Mean Temperature 69 °F 68 °F  
Max Temperature 76 °F 76 °F 84 °F (2017)
Min Temperature 62 °F 61 °F 54 °F (2009)
Degree Days  
Heating Degree Days 0 0  
Month to date heating degree days 0 0  
Since 1 June heating degree days 4 27  
Since 1 July heating degree days 0 0  
Cooling Degree Days 4 3  
Month to date cooling degree days 29 24  
Year to date cooling degree days 158 72  
Since 1 June cooling degree days 66 62  
Growing Degree Days 19 (Base 50)    
Moisture  
Dew Point 62 °F    
Average Humidity 79    
Maximum Humidity 93    
Minimum Humidity 64    
Precipitation  
Precipitation 0.00 in 0.00 in 0.00 in (2017)
Month to date precipitation 0.00 0.06  
Year to date precipitation 2.60 9.33  
Since 1 July precipitation 0.00  
Snow  
Snow 0.00 in - - ()
Month to date snowfall 0.0  
Year to date snowfall 0.0  
Snow Depth 0.00 in    
Sea Level Pressure  
Sea Level Pressure 29.92 in    
Wind  
Wind Speed 4 mph (WSW)    
Max Wind Speed 13 mph    
Max Gust Speed 17 mph    
Visibility 8 miles    
Events      
T = Trace of Precipitation, MM = Missing Value Source: NWS Daily Summary

Daily Weather History Graph

Daily Weather History Graph

Search for Another Location

Airport or City:

Trip Planner

Search our weather history database for the weather conditions in past years. The results will help you decide how hot, cold, wet, or windy it might be!

Date:

Astronomy

Jul. 08, 2014 Rise Set
Actual Time 5:47 AM PDT 8:01 PM PDT
Civil Twilight 5:18 AM PDT 8:30 PM PDT
Nautical Twilight 4:43 AM PDT 9:04 PM PDT
Astronomical Twilight 4:06 AM PDT 9:42 PM PDT
Moon 4:18 PM PDT (7/8) 2:16 AM PDT (7/8)
Length of Visible Light 15h 11m
Length of Day
14h 14m
Waxing Gibbous, 82% of the Moon is Illuminated
Jul 8
Waxing Gibbous
Jul 12
Full
Jul 18
Last Quarter
Jul 26
New
Aug 3
First Quarter

Hourly Weather History & Observations

Time (PDT) Temp. Dew Point Humidity Pressure Visibility Wind Dir Wind Speed Gust Speed Precip Events Conditions
12:52 AM 66.0 °F 62.1 °F 87% 29.90 in 8.0 mi SSW 3.5 mph - N/A   Overcast
1:52 AM 63.0 °F 61.0 °F 93% 29.89 in 8.0 mi Calm Calm - N/A   Overcast
2:52 AM 63.0 °F 61.0 °F 93% 29.88 in 8.0 mi Calm Calm - N/A   Overcast
3:52 AM 64.9 °F 62.1 °F 90% 29.89 in 8.0 mi Calm Calm - N/A   Overcast
4:52 AM 64.9 °F 62.1 °F 90% 29.89 in 8.0 mi Calm Calm - N/A   Overcast
6:52 AM 64.9 °F 62.1 °F 90% 29.92 in 6.0 mi Variable 3.5 mph - N/A   Overcast
7:52 AM 66.9 °F 62.1 °F 84% 29.93 in 6.0 mi Variable 3.5 mph - N/A   Haze
8:13 AM 66.9 °F 62.1 °F 84% 29.94 in 6.0 mi Variable 3.5 mph - N/A   Haze
8:52 AM 68.0 °F 63.0 °F 84% 29.95 in 6.0 mi Variable 3.5 mph - N/A   Haze
9:52 AM 72.0 °F 62.1 °F 71% 29.95 in 7.0 mi WSW 4.6 mph - N/A   Partly Cloudy
10:52 AM 73.9 °F 62.1 °F 66% 29.95 in 9.0 mi West 8.1 mph - N/A   Clear
11:52 AM 73.0 °F 61.0 °F 66% 29.95 in 9.0 mi WSW 8.1 mph - N/A   Clear
12:52 PM 75.0 °F 62.1 °F 64% 29.94 in 9.0 mi Variable 5.8 mph - N/A   Clear
3:52 PM 73.0 °F 63.0 °F 71% 29.90 in 9.0 mi WSW 10.4 mph - N/A   Clear
5:52 PM 70.0 °F 62.1 °F 76% 29.89 in 10.0 mi West 5.8 mph - N/A   Clear
6:52 PM 68.0 °F 62.1 °F 81% 29.90 in 9.0 mi West 4.6 mph - N/A   Clear
7:52 PM 64.9 °F 62.1 °F 90% 29.92 in 8.0 mi West 4.6 mph - N/A   Scattered Clouds
8:52 PM 64.0 °F 61.0 °F 90% 29.94 in 10.0 mi West 3.5 mph - N/A   Scattered Clouds
9:14 PM 63.0 °F 61.0 °F 93% 29.95 in 10.0 mi WNW 4.6 mph - N/A   Mostly Cloudy
9:52 PM 63.0 °F 61.0 °F 93% 29.96 in 10.0 mi Calm Calm - N/A   Mostly Cloudy
11:52 PM 64.0 °F 61.0 °F 90% 29.97 in 10.0 mi Calm Calm - N/A   Overcast